Theta_e
314 314 314 314 314 314 314 314 314 314 314 313 313 313 313 313 313 312 312 312 313 313 313 313 312 311 310 307 306 309 309 310 312 317 322 320 308 311 314 314 317 320 321 321 322 325 325 325 327 326 329 333 338 345 344 347 354 359 370 369 363 372 374 370 370 368 367 367 365 366 368 367 366 363 361 364 366 364 361 357 351 350 351 350 352 352 353 353
314 314 314 313 313 313 313 313 313 314 314 313 313 313 313 314 313 312 312 313 313 313 312 313 313 311 309 307 307 310 312 314 319 322 324 312 311 311 314 316 316 318 319 320 320 324 327 327 328 328 333 339 342 346 347 348 353 361 371 367 369 382 372 364 366 365 366 367 366 366 367 367 365 365 364 365 366 364 360 356 352 352 353 351 352 353 353 353
314 313 313 313 313 313 313 313 313 314 314 313 313 313 313 314 314 313 313 314 314 313 312 313 313 311 308 307 308 312 315 318 329 336 325 314 314 310 313 315 316 319 317 318 321 325 328 327 328 330 336 342 345 346 346 348 352 357 367 371 377 377 365 362 365 365 365 366 367 367 367 367 363 367 368 362 363 364 360 356 355 354 353 352 352 353 353 353
313 313 313 313 313 313 313 313 313 313 313 313 313 313 313 314 314 313 314 314 313 313 313 313 313 312 308 306 309 314 317 325 338 334 324 323 317 311 313 314 319 319 315 317 319 325 328 327 329 332 338 345 346 345 344 343 348 354 362 374 377 367 364 367 365 364 364 365 368 368 369 368 363 365 366 360 363 367 362 355 354 354 353 352 352 353 353 352
313 313 313 313 313 313 313 313 313 313 313 313 313 313 314 314 314 314 314 313 312 313 313 313 314 313 308 307 312 316 321 332 333 329 323 323 319 313 313 318 322 318 315 316 317 323 326 326 329 332 340 345 343 341 340 338 342 352 357 366 369 362 365 367 363 363 363 366 368 368 370 369 366 365 364 362 365 370 367 357 351 351 351 352 352 352 352 352
313 313 313 313 313 313 313 313 313 313 313 313 313 313 313 314 314 314 313 313 313 313 314 314 314 313 307 308 315 317 326 330 324 325 321 321 321 314 315 321 323 319 316 315 317 321 322 325 327 332 340 341 339 336 336 334 336 351 358 360 361 359 364 365 362 362 363 366 368 368 369 370 369 366 363 365 367 369 369 359 349 350 350 351 351 351 351 351
313 313 313 313 313 313 313 313 312 313 312 312 313 313 313 313 313 313 313 313 313 314 314 313 313 312 306 311 319 320 328 329 318 319 318 320 321 315 317 322 322 319 316 314 316 319 322 325 327 333 338 336 335 332 332 331 333 351 359 358 358 356 362 364 363 363 363 366 368 365 366 370 372 368 365 367 367 364 365 358 348 349 350 350 351 350 351 350
313 313 313 313 313 313 313 313 313 313 313 313 314 314 314 313 313 313 313 313 313 314 314 314 314 311 307 313 324 328 330 329 319 320 321 319 320 317 317 321 322 318 315 314 315 317 322 326 328 334 337 334 332 330 331 330 331 349 357 356 357 357 360 362 362 363 362 365 365 365 367 370 371 369 368 369 367 364 364 358 348 348 349 349 350 350 350 350
313 313 313 313 313 313 313 313 313 313 313 313 314 314 313 313 313 312 312 313 313 313 314 314 314 310 310 316 324 329 328 324 322 325 320 319 320 318 317 319 320 316 313 315 314 317 323 328 332 335 336 333 331 330 331 327 326 346 356 353 355 357 361 361 362 363 362 363 364 367 371 369 368 368 368 367 366 364 364 360 351 349 349 349 350 349 350 349
313 313 313 313 313 313 313 313 313 313 313 313 313 313 313 312 312 311 312 312 312 314 314 315 314 310 311 319 326 328 326 325 327 326 319 318 320 321 320 319 319 316 312 314 315 318 323 329 333 334 333 332 332 330 329 325 325 343 354 353 355 358 361 361 362 362 361 363 364 368 369 368 368 371 371 366 363 361 363 362 354 349 348 349 349 349 349 349
313 313 313 313 313 313 313 313 313 313 313 313 313 313 312 313 312 312 312 311 312 314 315 315 313 309 312 321 328 325 326 330 328 324 321 320 320 321 322 319 319 316 313 315 316 318 321 325 329 332 332 330 330 328 327 325 325 343 353 352 354 357 362 362 363 362 362 364 364 366 367 368 369 371 372 367 363 362 363 362 356 351 349 349 349 349 349 347
313 313 313 313 313 313 313 313 313 313 314 313 313 313 312 313 312 312 312 312 313 315 317 316 310 310 316 324 328 323 321 329 327 323 322 321 319 319 320 319 318 315 313 316 318 320 322 325 328 332 331 327 327 326 326 323 325 342 353 354 355 359 362 363 363 362 363 365 363 364 365 369 372 370 369 366 363 363 364 362 356 355 352 348 349 349 349 347
313 313 313 313 313 314 314 314 314 315 315 314 313 313 313 312 312 312 311 312 314 315 317 315 310 313 321 329 326 315 314 322 322 323 323 322 320 318 318 318 316 312 312 317 322 324 326 328 331 334 331 325 325 324 324 323 324 335 348 355 359 363 364 363 363 362 364 363 362 364 362 364 372 368 366 365 361 360 365 363 358 359 355 349 349 349 349 347
313 314 314 314 314 314 315 315 315 315 314 314 313 313 313 312 312 312 311 312 313 313 312 312 314 317 325 329 316 309 316 321 320 322 323 322 320 319 317 317 315 312 312 317 325 329 329 330 331 332 329 325 327 324 323 325 325 333 349 360 363 359 359 363 363 363 366 363 361 365 362 362 371 367 364 366 360 358 362 363 361 361 357 350 348 349 348 346
314 314 314 314 314 315 316 315 315 314 313 313 313 313 313 313 313 311 310 311 311 310 307 311 317 322 328 325 313 314 322 325 324 321 322 322 320 318 317 316 316 314 313 318 326 329 329 329 330 330 328 327 325 324 325 325 327 334 343 349 359 355 357 365 362 362 367 363 360 364 363 363 368 367 364 365 361 358 359 361 361 361 358 351 348 349 347 345
314 314 314 315 315 315 316 315 315 313 312 313 313 313 313 313 312 311 310 310 311 309 308 314 318 323 329 322 315 321 324 325 327 323 322 322 319 318 317 316 317 316 315 319 324 326 326 328 329 328 327 328 324 325 325 323 327 332 332 335 346 351 354 362 361 360 364 363 361 363 365 366 368 367 364 364 362 360 360 361 360 359 356 350 348 348 346 346
314 314 314 314 315 315 316 315 313 313 313 313 313 313 314 315 313 312 312 311 310 308 310 315 317 320 324 320 321 326 324 325 326 324 323 321 321 320 319 319 318 317 317 318 321 323 326 327 328 327 326 326 325 324 322 317 319 328 328 327 337 351 353 356 362 362 362 362 363 363 366 368 369 367 364 363 363 361 360 361 358 356 355 349 347 348 346 346
314 314 314 314 315 315 316 314 312 313 313 313 313 313 313 317 316 314 315 315 315 315 316 316 319 324 325 324 327 326 323 324 323 324 322 322 322 320 321 322 320 319 319 321 323 325 326 326 328 328 325 324 325 323 319 317 318 322 324 319 330 351 352 352 362 364 363 364 363 363 365 369 369 366 364 364 365 361 359 360 356 355 355 351 347 346 345 344
314 314 315 314 314 315 316 314 312 312 313 313 313 312 315 319 320 319 318 319 323 326 326 324 326 331 327 325 326 323 323 324 322 321 322 324 323 322 324 323 321 321 322 325 327 326 327 326 327 325 324 323 324 322 319 321 323 324 325 320 330 347 350 355 364 363 363 364 364 363 364 370 369 366 366 366 366 363 358 358 358 358 360 356 348 345 344 344
314 315 315 314 314 315 316 314 313 313 313 313 312 315 322 325 325 325 323 323 325 324 323 324 326 328 324 323 323 323 323 323 322 322 323 326 324 323 324 322 322 322 324 328 328 327 327 327 327 325 325 324 323 322 321 321 322 323 324 319 325 339 346 357 365 363 361 360 361 364 366 370 369 366 367 365 366 366 362 360 362 365 367 363 351 345 343 343
314 315 315 315 314 314 316 315 314 313 313 313 312 318 325 324 323 324 324 324 324 322 321 321 323 323 322 322 322 323 322 321 323 324 325 326 324 324 324 323 323 323 326 328 326 325 326 326 326 326 325 324 321 321 321 320 321 321 321 319 317 326 343 357 364 363 358 357 359 364 368 369 367 366 367 364 364 365 363 363 364 365 369 370 360 348 345 343
314 315 315 314 314 314 315 315 315 314 314 313 313 318 321 319 320 320 319 320 319 321 323 322 322 323 323 323 323 323 323 323 323 324 325 325 324 324 325 324 324 325 326 326 325 325 325 325 326 325 324 322 321 321 320 319 322 321 319 318 314 322 346 360 363 362 355 357 362 366 369 368 367 365 365 364 362 362 362 363 364 364 366 370 365 356 351 349
314 314 314 314 314 313 314 316 316 316 316 315 314 317 319 317 320 318 317 319 318 319 323 324 324 325 325 324 323 323 324 324 324 324 324 324 324 324 325 325 325 326 325 325 326 324 322 324 326 324 323 323 322 321 321 320 319 320 318 315 315 331 354 352 357 361 354 357 364 366 367 367 368 367 366 364 361 360 362 363 365 365 366 367 366 364 360 356
314 314 314 314 313 313 314 315 317 317 317 317 316 318 319 318 318 317 318 320 319 319 320 322 324 325 325 322 319 323 324 324 324 324 323 324 324 323 324 324 325 325 325 325 325 323 323 324 324 324 323 324 323 322 321 319 317 318 319 314 319 342 355 351 356 357 354 359 364 363 360 362 367 369 369 366 363 363 363 365 364 363 366 365 365 368 367 363
314 314 314 314 314 314 313 316 319 317 317 318 318 319 319 319 319 318 321 323 321 322 319 319 322 323 322 319 318 322 322 322 323 323 323 323 323 324 323 322 323 324 324 324 323 323 323 323 323 324 324 323 322 322 322 319 316 316 319 318 326 348 359 359 361 353 349 355 359 358 353 355 362 367 369 366 365 366 365 366 365 363 364 361 360 365 368 368
313 314 314 314 314 313 315 320 320 316 318 320 319 320 319 319 319 318 324 327 324 323 317 315 317 317 316 318 320 321 319 320 322 322 323 323 323 324 324 324 324 324 324 323 323 323 322 322 323 323 324 323 323 322 321 321 316 314 320 322 332 350 357 360 363 354 344 347 358 354 351 352 358 363 369 367 364 366 365 366 363 362 363 360 359 363 366 369
313 314 314 314 314 314 316 321 319 317 322 321 320 322 320 319 319 319 327 328 321 318 314 311 312 314 315 317 320 319 318 319 320 322 324 324 323 323 324 327 325 323 324 322 319 321 321 322 322 323 323 322 322 320 322 324 317 315 324 326 331 346 352 352 358 352 344 347 356 349 350 354 354 358 366 366 364 366 366 366 363 359 360 360 359 360 362 365
313 314 314 314 314 313 315 318 317 318 322 321 321 322 320 321 319 320 328 326 318 314 314 311 312 315 315 316 317 318 319 318 319 324 324 324 324 324 324 326 325 325 326 322 318 322 323 321 321 324 323 321 321 321 322 324 319 320 326 326 325 333 343 348 350 344 341 348 349 344 347 355 352 355 364 367 364 367 368 367 364 360 360 360 359 359 359 360
314 313 314 314 314 314 316 317 317 319 320 320 321 321 322 321 320 325 331 327 317 314 315 313 314 316 316 317 316 317 318 316 320 325 324 323 323 323 325 325 325 325 324 322 321 324 324 322 322 322 321 321 322 322 323 322 322 324 325 326 328 326 331 342 344 335 335 347 345 339 343 354 353 353 360 365 363 366 368 365 363 361 360 360 359 359 358 358
314 314 313 314 314 315 316 315 316 319 320 320 321 322 322 322 328 332 327 320 314 314 315 314 314 316 316 316 315 317 318 316 321 324 322 323 322 322 324 324 323 325 324 322 322 325 323 324 326 324 323 322 321 323 323 322 323 325 326 326 328 332 332 337 341 335 332 340 342 337 340 350 353 353 356 361 362 364 367 365 363 361 360 360 359 358 358 357
313 314 313 314 314 314 315 315 317 318 318 319 322 323 323 328 337 332 319 312 314 316 314 314 315 315 316 316 316 317 317 316 322 324 322 322 322 322 324 325 323 323 324 322 322 326 325 324 327 327 328 325 321 324 323 322 324 324 330 331 325 329 332 327 329 330 328 329 333 337 338 341 347 352 355 360 363 363 365 365 362 361 360 359 358 357 357 356
313 313 314 314 315 315 316 318 318 317 318 320 322 324 329 334 334 327 319 314 316 315 313 315 315 315 316 315 315 317 316 317 320 322 322 322 323 324 324 327 325 320 321 322 321 324 326 326 327 327 332 331 325 326 323 324 329 324 329 332 325 324 326 322 321 323 326 326 327 335 339 340 347 354 355 357 360 362 363 361 360 359 359 358 358 358 357 355
313 314 314 315 315 315 317 319 320 319 319 321 322 327 332 333 330 327 321 315 314 315 315 316 315 315 316 315 315 317 316 316 318 319 320 320 322 323 323 326 325 320 322 323 318 317 322 325 326 325 327 331 331 329 324 322 327 325 323 326 325 324 324 323 321 322 325 324 325 334 343 345 349 354 356 357 356 360 360 358 359 358 359 359 357 358 356 355
313 313 314 315 315 316 318 320 321 321 319 320 326 331 330 326 326 323 316 312 314 316 316 316 315 315 316 315 316 316 315 316 317 318 319 319 319 320 320 321 321 320 322 321 318 316 317 321 328 326 323 328 332 332 330 325 326 328 328 332 328 325 326 325 325 325 322 323 331 341 347 348 350 353 355 356 355 358 358 357 359 359 358 358 356 357 357 356
313 313 314 315 315 318 320 321 322 321 320 323 333 337 329 323 321 317 313 313 315 317 317 317 316 315 315 316 317 315 315 316 316 317 318 318 316 317 319 319 319 321 320 319 321 320 316 320 327 326 324 329 329 329 333 328 325 328 330 328 324 327 333 327 327 327 322 332 346 348 348 353 357 357 355 355 356 358 357 356 359 359 357 357 356 356 356 357
314 313 314 314 315 319 320 320 322 321 323 329 335 334 330 324 319 315 314 316 316 317 318 317 317 315 314 316 318 318 317 316 317 319 317 317 317 316 318 318 317 320 320 320 323 320 316 319 324 324 325 328 328 328 330 326 329 332 325 324 329 336 338 326 324 326 324 338 351 347 349 357 357 356 356 358 362 361 358 357 357 358 357 357 357 357 359 362
317 317 317 316 316 319 319 319 321 322 326 331 331 332 330 323 319 316 317 318 317 318 319 317 317 316 314 315 316 317 318 318 318 319 318 319 319 316 316 318 317 317 318 320 322 319 317 319 324 325 325 327 327 328 328 327 334 330 320 326 333 331 335 330 325 324 325 341 350 344 347 353 350 352 357 359 362 362 358 357 356 357 358 360 362 363 362 359
320 321 321 320 318 320 320 319 321 323 326 328 331 336 332 322 318 316 316 317 317 319 320 317 317 318 316 315 315 316 317 317 318 320 320 320 319 317 316 317 317 317 317 319 320 321 321 320 324 327 323 325 327 326 325 326 330 328 323 330 330 323 327 327 322 322 326 341 352 345 345 349 348 350 355 355 357 360 358 354 353 354 355 357 360 360 357 352
320 324 325 323 320 321 320 320 322 323 323 326 333 336 327 321 320 317 317 318 320 323 322 318 318 319 318 317 317 319 317 316 317 321 323 321 318 317 316 315 317 317 317 319 320 321 323 320 322 328 324 324 329 327 323 324 328 330 328 330 330 329 330 324 322 326 328 341 352 347 346 351 351 353 355 354 353 354 354 350 348 349 348 350 352 354 354 353
320 325 328 323 320 322 321 320 321 320 322 329 336 332 321 320 319 316 318 318 319 323 322 320 320 319 319 319 319 320 319 317 317 320 322 320 317 317 316 315 317 317 319 320 319 320 327 324 319 325 325 322 324 325 325 326 326 327 326 322 322 325 327 323 323 323 327 341 350 348 349 352 353 355 354 353 350 349 350 347 344 344 344 344 345 347 348 349
321 325 329 324 320 321 319 319 320 322 324 328 331 325 319 320 318 315 319 318 319 321 321 321 322 321 320 321 320 320 320 319 318 319 319 318 317 317 316 315 316 317 320 323 322 320 325 325 320 321 322 319 321 323 324 326 326 324 323 322 322 323 323 322 322 322 329 339 343 346 350 349 349 352 351 350 350 348 347 345 341 342 342 342 342 341 341 341
324 327 329 322 320 321 317 319 323 323 323 324 326 321 319 320 317 316 317 318 319 320 320 320 320 321 320 321 321 321 321 321 319 320 317 316 317 316 315 317 316 317 319 321 321 320 324 327 324 322 322 321 322 324 323 322 324 324 322 323 326 327 325 321 320 326 333 337 339 345 349 348 348 351 350 348 349 347 346 344 341 340 340 340 340 339 338 338
325 327 327 320 321 320 316 321 328 326 321 321 322 318 317 317 316 316 316 318 320 320 320 319 318 321 321 319 320 321 324 323 319 320 319 317 318 316 316 318 316 317 320 318 319 323 326 327 324 326 333 333 327 326 327 324 322 324 323 323 323 321 323 325 328 336 340 340 342 348 350 351 353 353 348 345 346 345 344 343 340 338 338 339 339 338 337 337
323 324 326 322 321 319 318 323 329 328 322 319 316 314 316 315 314 317 315 315 318 318 319 319 318 321 321 319 320 321 324 324 320 321 322 320 319 318 318 318 317 317 316 317 322 325 324 327 331 334 338 338 333 330 331 329 325 323 322 322 321 318 322 327 332 343 345 340 341 349 352 350 350 354 349 343 344 343 341 340 338 337 337 337 337 337 336 336
325 327 329 325 319 318 321 322 323 324 322 321 318 314 315 315 313 315 314 314 317 316 318 319 317 318 320 320 321 321 322 324 324 325 323 320 318 318 318 318 316 318 321 327 332 327 323 331 342 342 336 333 331 328 328 328 326 323 321 319 319 319 321 323 328 339 345 341 340 346 350 349 347 351 349 344 342 341 339 338 336 336 337 336 337 337 336 337
330 333 330 326 321 318 320 319 317 318 320 325 325 316 314 315 313 314 314 314 315 315 317 318 318 321 322 321 323 323 323 324 326 327 325 322 319 315 317 318 317 325 336 336 333 331 330 335 343 346 343 340 339 336 334 329 321 318 317 318 318 318 322 329 335 341 343 344 346 346 346 347 347 348 348 345 343 341 339 337 336 336 336 336 337 337 337 337
330 331 325 320 322 320 318 317 316 317 319 322 322 316 314 315 314 315 316 315 315 316 318 319 319 323 324 323 325 327 327 327 328 329 326 325 323 318 318 319 319 329 338 330 326 335 337 329 328 334 336 338 340 337 332 325 318 316 315 316 317 319 326 334 337 341 344 345 348 348 345 346 346 346 345 343 343 342 339 337 336 336 336 336 336 337 337 337
328 327 322 320 323 322 316 315 316 318 321 324 320 315 315 314 314 316 316 316 315 316 320 321 321 324 325 326 330 331 331 331 331 330 328 326 326 324 323 323 320 325 330 324 323 331 331 325 323 322 322 324 326 325 323 321 319 318 317 317 318 321 330 336 335 341 348 347 346 346 346 345 345 344 343 342 342 341 339 337 336 335 336 335 335 336 336 337
328 329 328 325 327 326 318 316 318 318 323 331 327 318 315 315 314 316 315 317 318 319 322 323 321 323 324 329 336 335 331 331 331 328 326 325 326 326 327 325 324 325 325 322 322 326 328 328 325 321 320 321 321 320 320 320 318 317 319 322 322 322 333 344 342 343 350 349 345 345 346 345 344 341 341 341 340 339 337 337 336 335 335 334 333 334 334 334
326 328 330 331 335 335 325 319 322 323 325 331 328 318 314 315 315 314 313 316 319 320 321 322 321 322 324 326 331 328 325 329 329 323 320 322 323 324 324 321 322 325 325 324 323 323 324 323 324 328 326 322 321 322 320 319 318 318 320 326 327 324 331 344 346 345 348 347 344 344 345 344 341 339 338 338 338 338 337 337 337 335 333 331 331 331 331 331
320 322 325 332 341 343 332 324 325 326 323 326 325 319 316 317 317 319 317 317 319 318 319 322 323 324 323 322 322 320 318 320 321 318 317 318 317 318 321 319 320 325 324 322 324 324 324 324 328 335 331 322 320 321 320 320 320 320 320 324 327 326 329 338 345 345 346 344 343 343 344 344 340 337 336 335 335 335 335 335 335 334 331 330 329 329 329 328
321 323 326 333 343 345 336 328 325 323 319 318 321 321 319 318 321 325 322 317 316 317 317 322 325 324 322 320 318 316 314 314 316 315 316 317 315 315 319 319 319 322 320 319 325 329 328 326 326 328 328 324 321 321 324 325 324 322 321 322 328 334 337 342 346 347 345 343 343 343 344 344 342 338 335 333 332 332 332 332 332 332 331 330 329 329 327 326
Wind_Speed
16 16 15 15 15 14 15 14 14 14 14 14 14 14 14 15 15 15 15 15 15 15 15 15 15 14 11 10 9 10 13 14 14 9 9 11 10 11 10 15 15 13 15 12 11 10 8 8 9 10 6 4 4 3 7 7 4 2 1 0 3 2 2 3 4 4 5 7 8 6 3 6 6 4 2 4 7 5 8 7 10 12 13 14 21 30 31 31
16 15 15 15 15 15 15 15 15 15 15 15 15 14 15 14 15 15 15 15 15 15 15 15 14 13 11 9 8 9 13 14 12 12 16 13 7 13 16 16 13 13 16 15 15 14 10 7 9 8 4 2 3 3 4 4 6 3 2 1 3 3 3 3 5 7 7 8 9 6 5 7 6 6 4 4 4 3 8 11 13 16 15 17 24 30 30 30
15 15 15 15 15 15 16 16 16 16 15 15 15 15 15 15 15 15 15 15 15 16 16 15 14 12 10 7 7 9 12 11 7 9 9 8 12 16 18 17 11 12 18 18 18 18 13 12 13 8 4 3 3 4 4 3 6 3 3 2 5 4 2 2 7 9 8 9 10 7 6 6 5 4 3 8 8 3 8 13 14 18 18 17 19 25 29 27
15 15 15 15 15 16 16 16 16 16 16 16 16 15 15 15 15 15 15 15 16 17 16 15 14 12 9 6 5 8 9 5 2 5 1 1 10 17 19 18 14 12 15 17 17 17 13 10 10 8 5 4 4 5 6 4 4 2 4 4 4 3 1 4 9 10 10 9 9 8 7 6 2 1 4 10 10 4 7 12 17 21 22 19 17 21 25 24
14 14 15 15 15 16 16 16 16 16 16 16 16 16 16 15 15 15 15 16 16 16 16 14 13 11 7 4 4 7 5 1 2 2 1 0 6 15 21 19 16 14 12 14 14 12 10 6 5 6 4 4 4 4 5 6 5 3 5 5 4 4 4 7 10 11 11 8 8 8 8 5 2 3 4 6 7 5 5 10 19 21 21 21 20 20 20 21
14 14 14 15 15 16 16 16 16 16 16 16 17 17 16 16 15 15 16 17 16 15 14 12 12 9 5 3 3 4 2 1 4 2 3 1 7 15 22 20 16 14 12 13 11 8 7 4 4 6 5 4 5 5 5 7 8 5 4 4 5 4 6 9 10 11 10 9 8 7 6 4 5 6 3 3 4 2 3 10 19 19 21 25 23 20 17 17
15 15 15 15 16 16 17 17 17 16 16 16 17 16 16 16 15 16 16 16 15 15 13 12 10 7 3 2 2 3 1 5 9 5 3 0 8 14 19 19 15 14 14 13 10 6 5 5 5 6 6 5 5 7 6 6 9 6 3 4 6 6 9 11 10 10 8 8 6 6 5 4 7 6 2 2 3 1 1 11 19 19 23 24 20 17 16 17
16 16 16 16 16 16 17 17 18 17 16 16 16 15 15 16 16 16 16 15 15 14 12 10 9 5 3 2 1 2 1 8 8 5 4 5 12 15 18 18 16 16 17 15 12 8 5 5 7 7 5 6 4 5 5 4 7 6 5 6 6 7 11 12 10 10 8 6 6 7 6 4 6 5 3 3 2 1 3 11 18 19 21 19 17 17 15 16
17 17 17 17 16 16 17 17 17 17 16 15 14 13 14 15 16 16 16 16 15 13 11 9 6 1 3 2 1 1 4 7 6 7 8 9 13 18 20 19 19 18 16 16 15 9 5 5 8 7 4 5 5 5 5 2 3 6 10 9 8 9 14 14 11 11 8 5 7 8 6 5 5 5 3 3 2 1 3 11 17 18 18 17 16 16 15 14
18 18 18 18 17 17 17 17 17 18 17 15 14 13 14 15 16 16 16 16 13 12 10 7 3 2 2 1 2 0 5 4 8 9 10 10 13 20 22 19 22 21 14 13 14 10 8 8 6 5 4 4 5 6 4 3 2 7 13 10 10 11 12 14 12 11 9 6 7 9 7 4 2 1 2 1 2 0 5 10 14 17 17 17 16 15 16 16
19 19 19 18 18 18 18 18 17 18 17 15 13 13 13 14 15 15 16 14 11 9 7 4 2 5 3 0 2 3 4 4 8 10 10 11 14 20 22 21 23 24 16 10 14 17 15 13 8 3 3 3 4 5 4 2 1 6 13 9 8 10 10 14 13 12 10 6 7 11 9 3 1 0 4 4 2 2 7 9 12 15 14 15 17 14 14 14
20 20 20 19 19 19 18 18 18 18 17 15 13 12 12 13 14 14 14 11 8 6 4 3 4 8 4 1 5 9 6 5 6 8 9 9 10 15 19 20 22 25 20 11 14 22 21 17 11 5 5 3 3 4 3 3 3 7 13 9 7 8 9 13 13 12 10 6 9 11 8 2 2 3 6 5 4 3 5 8 10 11 11 14 15 12 10 12
21 21 21 21 21 20 19 18 18 18 17 15 12 12 12 12 13 12 10 8 6 5 3 2 8 9 4 0 9 13 6 2 3 7 10 7 5 8 14 17 18 22 22 17 18 22 20 17 11 7 8 4 3 3 4 4 1 6 10 9 8 5 6 10 11 12 9 8 13 9 5 2 1 5 7 5 7 7 5 7 7 5 8 12 13 11 9 11
23 23 23 23 23 22 20 19 19 18 16 15 12 11 10 10 10 8 7 6 5 5 1 7 11 7 3 5 13 12 10 10 11 12 15 12 7 8 13 16 15 18 22 22 20 16 15 16 12 8 7 4 3 3 4 4 1 5 8 6 6 4 6 8 9 12 8 8 13 5 4 5 2 5 7 6 9 11 9 8 5 2 5 10 12 12 9 10
24 24 24 24 23 22 21 19 19 17 15 13 11 10 8 6 6 5 5 4 5 4 4 10 10 5 2 8 14 12 9 8 10 16 19 16 11 8 12 17 17 18 20 21 18 14 15 15 11 6 4 4 1 2 4 4 2 4 7 4 4 4 6 7 7 12 9 9 12 3 4 5 3 7 8 7 8 10 9 7 4 3 4 8 11 13 9 9
25 25 24 24 23 22 21 19 19 17 15 12 10 8 5 4 3 4 4 3 3 3 6 7 6 3 1 5 10 10 7 4 7 15 20 16 12 11 13 16 16 17 18 19 19 17 15 11 6 4 1 2 1 3 3 4 3 0 5 5 6 5 6 6 8 12 9 10 11 4 4 4 4 8 8 8 9 11 8 7 8 6 5 9 9 10 9 9
26 26 25 24 23 22 21 20 18 16 14 11 9 6 2 2 2 2 2 2 3 5 5 2 2 2 3 7 8 7 5 7 7 12 19 17 13 14 15 10 9 13 14 16 16 12 10 7 3 1 1 1 0 4 3 2 3 3 2 5 7 9 9 7 8 11 8 11 12 7 4 4 6 9 10 9 10 13 9 9 10 8 7 9 8 9 9 9
26 26 25 24 23 23 21 20 18 15 13 10 8 6 2 3 2 2 4 5 3 2 1 2 1 1 3 6 5 4 6 8 9 9 15 18 16 17 16 9 6 9 7 6 8 5 4 3 2 1 1 1 1 4 3 4 4 3 3 4 5 9 11 10 9 11 12 11 11 9 6 5 9 10 10 9 10 13 12 10 9 9 8 10 10 9 10 10
25 25 25 24 23 22 22 20 19 17 14 11 8 6 3 2 2 3 4 5 3 1 2 2 3 1 2 5 6 7 9 11 11 10 12 17 18 17 16 11 6 6 4 1 3 4 2 1 3 3 2 5 5 5 6 7 5 3 3 2 5 6 8 11 9 10 14 10 8 10 7 7 11 10 10 9 8 12 14 11 8 8 7 8 9 9 11 10
24 25 25 24 23 22 22 21 20 18 17 14 10 5 1 1 2 1 1 3 4 6 5 3 7 4 5 7 8 7 9 11 9 9 13 15 15 13 10 7 5 4 4 3 3 3 3 3 3 5 6 8 8 7 9 8 4 4 6 3 4 6 6 9 8 11 15 8 5 8 8 9 11 10 11 10 8 10 14 14 9 7 6 6 7 10 13 10
23 23 23 24 23 23 22 21 20 20 19 17 12 4 1 1 1 2 2 4 8 11 9 7 11 10 10 11 13 12 6 6 6 6 11 10 13 12 5 4 6 4 4 4 3 1 3 4 6 8 8 9 8 8 8 6 6 5 6 6 2 4 7 10 12 14 13 6 5 8 9 9 9 9 9 10 10 10 12 13 11 8 5 4 6 10 12 9
22 21 22 23 23 22 22 21 21 20 18 15 9 2 3 2 1 6 5 3 7 10 11 11 11 11 14 19 24 21 7 4 4 5 6 5 8 8 3 3 6 4 4 4 3 1 2 3 8 9 8 8 7 8 7 6 7 7 6 4 3 3 4 7 12 16 12 4 5 10 9 6 7 8 8 10 10 9 10 11 11 9 6 4 5 8 10 8
20 21 21 21 21 22 21 21 21 17 15 12 7 4 7 6 8 13 6 1 6 6 6 8 8 7 11 15 17 13 6 5 4 5 6 6 5 5 4 4 5 5 4 4 4 4 4 5 10 10 7 7 8 9 7 6 6 6 6 4 3 5 8 7 10 16 11 4 8 10 7 4 5 5 6 7 7 7 8 7 5 2 2 3 3 4 7 8
19 21 20 19 21 20 20 21 14 9 14 16 13 11 11 12 14 15 6 1 4 5 5 9 7 5 8 9 8 1 5 4 5 5 8 8 4 4 5 4 5 5 4 5 6 5 6 9 10 10 8 9 9 9 8 6 5 7 8 5 4 6 8 7 12 16 8 3 11 12 6 1 4 7 6 4 4 6 7 7 5 0 2 3 2 0 4 6
19 20 20 20 19 18 21 17 5 7 17 17 15 14 15 15 16 11 3 1 3 4 4 6 4 4 7 7 5 1 3 3 4 6 10 10 7 3 3 3 4 5 6 7 6 5 9 10 8 9 10 9 8 8 8 7 5 7 7 8 8 7 5 3 5 10 7 3 9 11 5 1 3 7 8 5 5 6 6 8 8 7 4 2 3 3 1 2
19 19 19 21 20 20 18 7 4 15 18 11 11 17 17 13 9 4 3 3 2 3 2 1 2 3 4 2 2 1 1 3 5 10 12 11 10 5 2 2 2 6 7 6 4 3 7 9 7 10 11 9 8 8 8 8 6 5 6 10 11 11 10 8 4 1 4 5 10 8 4 2 3 6 9 8 9 9 7 8 9 9 7 6 6 6 4 4
20 19 19 20 20 21 12 5 12 17 9 7 14 19 18 14 9 4 3 3 2 3 1 1 0 2 3 3 4 4 1 4 3 7 10 11 10 4 2 3 1 4 4 3 3 4 7 8 7 10 11 8 7 7 8 8 6 5 5 7 9 11 12 14 9 5 5 3 7 5 3 4 3 6 9 10 11 11 10 11 10 10 9 9 10 9 7 6
21 20 20 18 19 19 12 10 16 11 6 13 19 18 18 17 12 5 4 1 2 2 0 1 1 2 2 3 3 2 2 1 1 4 10 15 10 4 3 5 2 4 3 2 4 6 6 8 8 10 10 7 6 8 8 7 5 5 6 4 3 7 10 14 14 10 5 4 5 5 3 4 2 4 7 9 10 12 13 14 12 13 13 12 13 12 10 8
21 21 20 20 19 17 12 12 13 9 12 19 18 18 19 14 8 4 3 1 2 2 1 1 0 2 2 1 2 2 2 1 2 4 6 11 6 2 4 5 3 4 5 5 6 6 6 7 8 9 8 7 7 9 9 8 6 3 3 2 3 2 7 13 13 10 5 6 7 10 5 4 2 3 6 8 10 12 13 13 12 13 14 13 14 14 12 8
21 21 21 20 18 14 12 16 15 11 15 19 18 20 17 8 4 4 3 2 1 3 1 1 2 2 4 2 2 2 3 4 2 2 2 4 1 2 2 3 2 2 4 3 5 7 6 5 5 6 7 9 9 9 9 10 7 1 3 3 3 4 1 6 7 6 5 3 8 14 9 6 2 4 6 7 7 11 12 9 11 13 13 14 13 13 13 10
20 21 21 20 18 14 10 12 13 13 16 19 20 17 10 4 4 4 1 1 1 3 1 0 3 1 4 4 2 2 3 4 2 5 3 2 1 1 0 1 1 2 4 4 5 5 4 4 4 4 6 8 7 8 9 7 3 3 2 2 3 4 3 2 2 4 4 4 8 14 10 6 3 3 9 10 4 9 13 11 14 16 14 14 12 12 13 11
19 20 20 20 20 17 11 12 16 17 16 18 16 8 4 4 3 1 2 2 1 2 2 2 3 2 2 4 3 2 3 3 2 4 5 3 2 2 3 2 2 1 3 3 3 4 4 4 5 5 4 5 5 5 6 4 2 3 2 5 3 2 2 1 1 2 4 4 6 13 10 3 3 3 8 13 7 8 13 11 14 15 14 13 11 11 11 10
18 19 19 18 20 21 18 18 18 16 15 16 11 3 5 5 1 3 3 2 2 2 2 4 4 4 3 2 2 1 2 2 3 2 3 4 3 3 4 5 4 3 1 3 3 3 3 5 4 3 4 2 6 5 3 2 1 3 3 3 3 2 1 1 2 1 2 1 1 8 8 1 3 3 3 6 7 7 9 8 10 12 12 12 11 10 9 9
18 17 18 18 20 21 19 17 16 14 15 12 6 4 6 4 2 4 3 3 3 1 4 6 4 3 5 3 2 1 1 3 3 3 2 3 2 0 2 2 2 3 2 1 2 1 3 4 4 3 4 3 3 5 6 3 1 1 5 5 4 4 3 2 3 2 3 2 4 4 3 1 2 1 5 3 0 4 6 4 5 8 8 9 9 8 9 9
16 15 17 18 19 18 14 13 13 10 7 6 5 4 4 1 3 3 3 3 4 4 6 7 5 4 1 3 2 2 2 2 2 3 3 3 3 3 2 2 3 1 2 0 2 1 0 3 5 4 4 4 5 3 5 6 3 3 2 5 3 5 4 2 3 4 4 4 4 4 0 1 2 2 5 5 7 6 5 7 6 6 5 6 7 7 8 7
15 15 14 15 17 15 11 11 10 4 1 5 5 3 1 2 3 1 2 2 3 4 5 7 7 6 4 3 2 2 2 2 1 2 3 4 6 7 5 2 6 7 4 1 1 1 2 3 6 6 5 3 6 4 4 6 2 2 2 2 5 4 6 3 3 1 4 5 2 2 1 2 2 1 6 7 8 6 4 7 7 6 6 5 5 6 6 5
14 12 10 13 16 13 11 13 8 3 3 6 4 1 3 3 3 1 0 1 2 3 5 4 4 5 4 4 4 5 3 4 3 3 4 3 4 7 7 3 7 8 4 2 0 1 2 2 5 4 6 6 3 5 4 4 4 2 1 3 4 1 5 3 0 2 4 5 1 2 3 3 2 1 6 6 5 4 5 8 8 7 7 4 3 4 4 6
13 10 8 14 14 10 10 13 7 5 5 4 1 3 2 2 4 3 2 2 1 4 6 2 1 3 3 3 5 7 4 3 3 2 4 3 1 3 6 5 7 9 7 4 2 0 2 1 5 4 5 6 2 6 3 1 2 3 3 2 1 2 1 0 1 1 2 4 2 3 4 2 1 1 3 6 6 5 5 8 10 8 7 4 3 4 7 9
9 6 5 9 9 7 10 11 7 5 5 2 1 3 2 3 5 5 3 2 2 5 4 0 1 3 3 3 4 6 5 3 2 1 3 3 1 3 6 5 6 10 10 5 3 1 2 3 3 6 6 5 4 4 3 3 4 2 2 2 1 3 3 2 2 3 4 3 3 2 2 2 1 1 1 5 7 6 5 7 10 9 8 6 5 6 9 8
3 3 4 6 4 6 9 9 5 5 2 1 2 3 3 3 4 6 4 3 2 2 2 0 2 3 3 4 2 2 4 3 2 1 2 3 1 3 7 6 5 9 9 5 5 2 3 4 1 7 7 4 2 1 3 3 1 3 4 2 1 1 0 2 1 1 5 4 3 4 1 3 1 2 3 9 9 5 4 5 9 9 9 9 8 9 9 8
2 2 4 5 4 6 11 8 3 2 2 2 2 3 3 2 3 8 6 5 4 2 3 2 2 2 2 3 3 2 4 4 3 3 3 3 3 1 5 5 4 6 6 5 5 3 3 3 0 3 4 2 2 4 3 3 4 4 1 2 2 1 2 2 1 3 3 4 4 5 3 2 0 2 4 10 9 4 5 4 7 9 9 8 8 10 10 8
3 1 6 7 7 5 7 4 1 2 2 3 4 2 2 2 3 7 7 5 4 2 2 2 2 2 2 1 1 3 4 3 5 4 2 3 4 1 4 6 5 4 3 2 2 2 1 2 1 2 3 3 7 7 4 4 3 4 3 2 1 2 4 4 2 2 3 5 3 4 3 0 1 2 5 8 9 7 3 3 5 8 7 7 8 9 9 7
2 3 10 10 9 4 4 1 2 1 2 4 2 1 3 2 3 5 6 5 4 2 2 2 2 2 1 1 1 3 3 3 4 4 1 2 3 2 3 6 7 4 4 2 3 3 1 2 2 3 5 4 5 6 7 7 4 4 2 2 2 2 1 5 4 2 3 4 3 4 3 1 1 1 5 7 9 11 7 3 5 6 6 6 7 8 8 7
1 4 7 9 7 2 5 1 3 2 3 1 2 3 2 2 3 4 4 5 4 3 2 2 1 2 0 1 3 3 2 3 3 3 2 1 2 3 4 6 6 4 2 1 1 2 2 1 3 3 4 5 6 7 9 9 6 3 3 4 6 7 5 2 3 4 3 2 4 5 2 2 2 2 4 7 9 10 9 7 7 6 5 5 6 7 7 6
2 2 4 7 5 2 4 3 4 3 1 3 3 2 3 2 3 4 3 4 4 3 2 2 2 3 3 4 5 5 4 3 2 3 3 2 1 3 5 6 5 4 3 1 2 1 1 1 2 4 2 2 2 2 2 4 4 2 3 7 9 11 9 3 3 4 3 3 5 5 4 3 3 2 4 6 8 8 8 7 7 7 6 5 5 6 6 5
2 1 3 6 5 4 0 2 4 5 3 3 3 2 3 1 2 4 5 4 4 4 3 3 3 4 4 5 5 5 6 4 4 4 4 4 2 2 4 5 6 8 8 8 7 2 3 3 3 4 3 3 4 4 4 2 3 4 6 10 12 11 7 4 4 2 3 4 3 2 10 11 7 6 7 7 8 8 7 7 7 7 7 6 6 6 6 6
2 1 2 3 4 3 2 3 5 5 2 3 2 3 3 4 3 5 6 4 3 5 4 5 6 4 3 4 4 3 4 4 5 4 3 4 3 3 5 6 8 12 10 9 9 4 4 4 4 3 1 1 4 5 4 2 3 4 6 10 12 11 8 6 4 3 6 6 3 2 13 16 11 9 10 10 8 8 7 7 7 6 7 7 6 7 8 7
2 1 1 1 1 1 2 3 4 5 5 5 2 3 5 8 6 4 4 5 4 5 4 5 8 7 4 4 4 2 3 4 4 3 3 4 3 4 6 6 8 12 9 6 6 3 5 3 3 3 5 5 3 4 5 3 3 4 6 9 11 10 8 6 3 5 6 5 6 10 13 14 11 10 11 10 10 9 8 7 7 7 7 8 8 9 9 8
2 1 3 3 1 2 2 3 3 6 6 4 3 4 6 7 6 3 3 5 6 6 4 4 7 8 7 6 5 3 3 2 1 3 3 3 3 3 4 5 6 8 7 5 5 3 4 2 5 4 4 6 7 7 7 6 5 7 8 9 11 9 6 6 3 3 4 6 12 13 10 8 7 8 9 8 8 9 8 7 8 7 8 8 9 11 10 8
2 1 3 4 3 4 3 4 3 5 4 4 4 4 4 5 5 3 2 3 3 5 5 4 6 7 7 8 6 5 3 2 3 2 3 2 3 2 2 1 3 5 7 5 4 4 3 3 5 4 4 6 8 7 8 7 5 8 10 10 10 7 5 7 6 5 7 9 12 13 10 6 5 7 8 7 8 9 9 8 7 6 7 9 10 11 10 8
5 4 2 2 3 5 4 4 3 4 3 3 3 4 3 4 4 2 2 2 2 3 4 4 6 6 6 8 8 5 5 2 2 3 3 1 1 1 1 1 1 2 5 4 3 4 4 3 4 5 4 3 6 7 9 7 5 10 12 10 7 5 4 4 4 4 9 12 13 12 9 5 5 7 9 9 10 10 9 9 7 6 7 9 10 10 9 8
9 5 3 2 1 4 4 4 3 4 2 0 3 4 3 3 4 4 2 3 2 4 4 5 7 5 5 7 6 3 4 4 3 4 5 2 2 2 1 2 4 4 2 3 3 3 3 2 2 3 3 2 6 7 6 5 5 6 6 7 4 4 6 6 5 4 9 12 11 8 6 5 6 9 10 9 10 10 9 7 7 7 8 9 10 9 8 8
Wind_Direction
341 339 337 336 335 334 333 332 330 328 328 326 326 327 326 326 326 327 330 328 327 326 326 326 323 322 326 336 337 331 327 318 314 301 246 255 249 217 193 171 172 170 165 169 178 174 174 196 212 209 204 207 212 221 228 215 151 142 148 290 274 208 178 187 166 142 138 142 155 182 149 111 126 156 189 12 18 76 114 119 114 109 114 119 128 135 136 139
339 338 336 336 335 334 333 331 329 328 326 324 324 325 324 324 323 327 331 329 327 327 328 326 324 323 325 337 341 337 330 321 310 282 253 252 231 195 189 171 164 181 182 180 188 179 166 186 197 196 189 200 223 220 224 181 145 168 152 171 254 200 184 188 145 134 141 148 153 169 141 124 157 167 159 119 61 68 118 125 119 116 117 120 131 137 140 144
338 337 336 336 335 333 332 330 329 327 325 323 322 322 323 322 322 327 329 330 329 330 329 327 326 323 327 337 345 344 328 324 301 265 264 249 224 203 194 190 177 182 192 187 187 186 181 185 185 180 181 215 235 229 239 178 164 189 137 191 249 195 190 163 139 134 138 149 143 147 146 135 165 173 150 128 112 130 148 138 132 129 133 137 139 140 145 148
338 338 337 336 334 332 330 330 328 326 324 321 321 321 320 320 322 325 328 330 329 330 329 328 327 323 333 342 351 347 327 330 289 249 349 185 217 201 193 193 179 177 194 190 188 195 202 201 190 185 186 218 234 227 234 204 193 195 161 217 228 155 116 128 131 130 136 145 136 139 144 130 164 137 109 126 124 161 169 148 145 141 142 144 142 144 148 149
339 337 336 335 333 331 330 328 326 324 323 320 319 318 318 320 322 326 328 329 328 328 329 329 327 327 337 353 6 347 341 38 268 257 49 290 201 189 183 176 171 174 184 191 194 205 227 247 222 208 210 223 218 221 234 215 215 219 204 212 172 135 122 126 127 132 137 134 132 142 141 134 156 80 92 139 137 157 181 155 148 145 144 144 145 150 151 148
338 336 335 333 331 330 327 326 324 323 320 318 317 316 316 318 322 328 326 326 326 326 330 329 325 331 341 8 24 349 17 150 260 268 21 349 176 180 175 168 167 171 181 194 200 206 226 243 234 219 221 226 202 212 232 216 217 223 222 180 153 159 135 129 131 135 138 133 140 147 138 128 114 93 109 156 125 156 218 156 148 145 143 143 146 152 153 149
337 337 334 332 329 328 326 323 323 322 319 316 316 315 315 318 323 325 322 323 324 325 328 327 325 332 357 37 43 23 53 263 267 259 303 323 161 170 167 167 166 170 187 195 197 200 203 199 219 223 218 226 207 217 232 227 224 211 190 160 164 174 141 134 136 135 135 131 135 135 129 122 113 113 137 92 75 98 134 147 147 142 141 143 145 151 152 151
336 335 333 331 329 327 324 322 321 322 322 317 315 317 318 320 323 320 320 322 322 325 324 322 323 329 25 47 40 21 280 250 250 215 210 164 155 163 161 168 174 178 189 197 195 190 191 202 223 226 212 226 226 237 250 250 239 202 165 168 177 172 144 134 132 129 125 119 119 121 111 96 111 112 98 58 49 75 97 138 144 141 143 145 146 149 151 152
335 334 333 331 329 327 324 321 319 320 321 320 319 323 324 322 320 318 320 323 324 324 318 316 321 20 77 27 34 355 266 231 195 169 178 168 158 166 169 173 181 183 188 201 202 191 190 206 222 220 210 238 248 263 260 243 253 185 161 169 174 163 144 133 133 133 128 129 126 116 99 93 114 98 71 29 22 85 109 132 143 145 146 149 150 152 156 159
335 333 332 330 329 327 324 321 317 316 319 324 328 328 325 320 318 319 322 327 327 319 312 310 297 131 103 316 107 178 277 221 173 175 184 185 168 170 178 180 182 185 190 200 202 202 209 217 229 227 228 255 251 256 234 185 234 172 157 163 163 153 144 136 137 137 128 135 132 118 113 120 135 76 97 79 353 178 120 128 146 149 150 152 153 157 162 165
335 333 332 330 329 326 324 321 317 315 319 327 332 326 321 318 318 323 326 329 327 316 306 301 231 153 144 3 143 219 248 183 176 180 187 195 184 180 185 187 185 187 190 191 204 211 218 236 259 286 247 245 265 271 243 207 317 155 148 146 155 148 143 140 138 141 133 130 135 119 113 113 321 23 130 136 175 173 128 137 151 150 153 152 153 160 165 166
337 336 334 331 329 327 325 322 320 317 319 327 329 323 321 321 323 325 329 333 329 322 300 282 150 144 135 45 227 223 193 137 164 185 191 190 190 196 194 192 191 191 189 183 210 216 221 237 252 277 259 263 310 294 278 304 17 136 140 131 153 150 146 149 144 150 140 133 148 125 101 60 353 123 132 131 134 109 110 144 152 149 154 151 153 159 165 166
340 339 336 334 331 330 327 324 323 321 322 327 327 326 326 325 326 328 333 335 332 331 307 187 143 139 115 225 241 242 237 228 233 217 207 181 160 194 195 195 197 198 196 194 209 217 223 237 239 248 262 283 292 267 294 303 16 141 142 133 148 152 159 159 149 153 139 146 166 137 104 215 320 126 138 134 131 119 125 154 151 155 159 154 157 161 170 169
343 342 340 337 335 333 331 329 327 325 326 329 330 331 331 330 328 331 339 338 349 358 45 136 131 123 111 260 264 278 296 284 274 246 215 189 161 169 185 195 202 204 204 206 216 227 241 258 260 249 255 259 242 274 323 326 6 126 129 126 144 160 174 163 153 158 139 160 181 133 112 201 200 146 148 144 145 146 160 157 144 216 176 159 160 165 176 168
345 345 344 341 338 336 336 335 332 331 330 330 335 336 335 335 329 338 353 353 13 29 108 134 137 114 45 279 279 298 312 285 257 232 209 188 174 170 184 197 207 211 211 214 227 248 262 274 269 239 245 267 292 17 345 336 351 126 127 134 164 153 159 164 174 174 154 169 194 145 114 185 184 167 157 151 151 145 155 154 160 243 192 166 165 167 177 168
346 347 347 345 342 340 340 339 337 335 334 335 338 340 341 341 344 3 7 16 43 101 118 128 157 143 30 285 294 303 290 229 221 213 200 188 181 176 182 196 208 212 214 221 233 253 267 277 263 208 185 279 1 67 19 351 338 151 132 152 174 159 157 171 191 194 168 158 194 199 128 166 173 168 156 156 153 139 147 167 184 226 186 170 175 168 173 172
346 347 348 348 346 344 343 343 341 339 339 340 337 340 357 325 331 32 30 61 85 148 144 103 146 144 262 285 306 305 258 217 219 203 193 192 192 180 175 184 202 204 210 226 239 257 270 267 240 221 110 155 143 87 57 317 287 307 116 143 166 165 164 170 180 192 173 162 189 189 154 171 160 157 157 163 152 138 155 177 190 218 183 174 188 174 174 176
346 346 347 349 348 346 346 346 345 343 341 341 338 336 303 262 243 106 102 116 106 155 232 312 84 95 268 277 285 278 279 241 225 221 200 194 196 189 178 174 181 187 197 238 245 239 253 262 107 85 134 222 276 105 136 224 206 219 194 139 149 165 167 174 177 175 172 181 188 168 161 167 151 153 158 164 148 139 163 181 196 215 187 182 192 177 176 176
345 346 346 347 349 348 347 348 346 343 339 338 338 327 284 253 206 143 125 132 120 179 274 241 178 143 276 255 253 256 265 236 222 240 217 194 195 195 182 173 166 166 165 222 243 203 185 59 102 138 177 221 230 173 195 223 196 212 250 118 136 167 179 183 176 162 167 182 186 164 160 159 157 161 157 158 147 139 160 179 199 209 190 194 193 173 175 174
346 345 343 344 348 349 348 348 347 343 341 338 338 340 319 32 45 96 140 176 207 229 253 205 191 242 284 275 287 281 249 225 222 231 218 201 185 183 181 164 147 163 178 172 225 227 132 111 177 193 195 214 223 207 213 235 260 304 308 313 155 163 191 189 169 161 166 169 182 169 152 157 165 164 156 152 145 142 160 175 191 195 184 199 189 168 172 170
345 344 342 341 345 348 347 346 344 342 341 336 337 357 148 131 82 312 279 229 234 230 238 227 210 234 263 269 284 286 258 214 230 227 221 206 161 161 185 156 149 191 214 181 188 251 115 148 210 212 206 213 227 231 226 241 273 280 275 283 237 175 192 185 165 165 171 157 163 161 144 160 169 161 159 152 154 164 169 174 183 187 176 185 181 166 169 165
345 344 340 339 342 345 345 343 340 338 337 332 335 343 257 253 316 310 295 277 273 234 225 239 235 249 260 264 269 263 236 169 236 248 223 186 146 161 190 145 154 195 220 184 156 149 148 206 227 220 212 213 232 245 242 241 243 248 250 260 266 222 172 165 162 165 173 157 150 154 140 155 167 158 161 161 166 173 174 177 182 184 172 169 177 166 164 156
345 343 340 338 340 343 342 338 337 338 340 334 316 265 274 294 323 318 311 311 292 253 218 232 237 257 259 267 270 247 186 151 204 239 210 163 140 170 159 141 166 184 204 183 161 158 179 231 229 221 215 210 230 241 242 249 247 247 241 236 246 195 146 147 170 171 179 172 141 138 123 134 159 158 160 169 172 163 168 171 163 173 132 143 182 160 155 154
344 343 341 336 337 342 339 334 332 343 347 328 298 285 295 300 305 309 313 107 287 274 233 221 214 240 250 265 281 200 124 169 189 208 198 162 140 166 159 159 169 181 210 193 171 170 213 231 215 216 219 207 223 235 227 231 248 249 235 216 198 175 155 158 174 169 164 130 131 120 95 138 176 176 173 168 167 162 165 144 114 148 42 47 325 32 137 153
344 343 340 338 337 336 335 332 319 338 336 313 295 316 329 312 298 299 334 52 292 284 242 216 198 237 254 261 265 179 118 201 204 192 183 164 155 156 168 174 160 186 213 207 186 190 237 238 203 208 224 214 218 233 221 204 223 254 238 207 183 164 140 108 161 164 141 132 157 137 113 227 213 192 181 165 180 182 167 147 150 185 167 105 280 271 173 177
344 341 340 342 337 332 336 334 301 326 324 300 309 338 342 326 309 313 38 41 306 295 258 172 145 223 261 274 208 100 95 262 232 187 177 173 173 161 181 203 164 191 201 203 196 203 239 236 200 205 220 218 217 236 232 197 199 252 225 191 176 162 151 122 62 239 166 160 187 176 124 148 207 214 189 169 183 190 178 169 169 182 170 157 216 243 230 206
343 339 339 343 340 338 338 301 313 322 309 308 331 336 340 342 348 14 46 45 327 300 254 213 236 178 202 202 169 107 130 269 253 178 176 182 177 140 185 222 185 201 198 167 207 231 226 221 205 206 216 217 211 235 233 190 188 240 208 171 160 157 157 139 126 227 248 119 172 197 79 111 194 222 193 171 178 191 190 185 179 183 182 174 193 221 225 213
340 337 337 341 342 337 323 301 315 314 298 328 334 336 341 340 343 22 78 71 279 293 224 208 250 178 207 231 195 151 194 241 353 208 187 183 178 124 181 231 210 227 255 169 218 254 229 212 200 199 210 215 210 228 223 192 203 220 177 164 171 160 156 149 155 197 222 99 159 208 104 106 224 221 181 171 182 198 198 191 185 184 184 181 187 203 218 216
337 335 332 336 339 332 320 306 301 297 322 338 344 341 336 334 346 51 87 53 261 270 320 54 311 219 218 285 280 247 262 306 250 239 185 179 192 114 175 219 207 247 258 186 210 256 245 220 199 188 201 216 221 224 218 209 222 226 177 216 276 206 159 160 173 187 167 132 185 208 163 114 230 215 168 175 196 206 202 192 187 184 184 185 184 191 206 214
333 331 328 332 334 327 317 304 294 306 331 338 341 333 327 336 42 67 41 17 277 266 271 60 291 227 144 149 279 230 233 268 214 160 146 184 232 45 167 191 168 260 276 226 232 245 247 252 221 189 192 210 221 220 224 222 209 286 317 298 325 324 117 154 173 162 149 172 204 202 177 125 177 220 186 190 202 196 193 189 184 183 185 187 186 186 195 203
328 326 325 327 326 316 304 297 305 324 327 327 332 332 333 7 75 78 32 212 249 284 306 298 266 254 134 163 240 211 212 268 186 138 176 201 72 51 78 33 56 328 323 297 272 263 273 288 258 218 186 189 208 220 237 242 168 115 336 29 23 322 359 85 104 111 147 222 220 198 173 133 169 227 209 211 204 175 184 189 184 184 186 186 188 186 189 196
323 320 320 322 317 308 289 288 311 323 320 324 333 344 42 38 35 36 284 255 281 291 317 306 249 225 190 192 210 188 180 251 221 157 166 164 137 173 176 171 167 24 331 274 286 313 296 263 245 234 196 155 149 200 248 290 70 113 95 65 62 301 352 63 204 149 172 243 218 176 150 137 237 266 217 206 192 174 186 189 184 184 182 180 186 187 186 193
320 315 316 315 311 305 298 300 312 316 316 328 342 31 80 62 357 287 298 322 296 244 0 325 257 193 176 205 255 218 172 251 245 183 147 133 131 187 201 201 173 135 208 260 321 338 287 275 265 208 213 174 123 145 211 265 58 135 148 113 131 166 59 250 230 151 166 288 102 142 128 108 260 328 320 214 196 181 180 181 181 179 176 176 180 181 183 191
318 314 314 309 305 301 297 304 312 306 310 337 16 59 53 48 274 299 339 346 301 308 19 342 293 172 157 197 237 133 118 273 236 148 110 82 71 307 233 248 226 169 175 278 301 239 206 263 268 204 219 228 140 150 164 152 38 198 173 140 143 166 151 181 200 168 175 147 41 44 90 128 217 276 329 319 192 141 137 129 150 161 166 170 169 173 181 189
320 314 313 307 301 295 290 304 315 306 316 11 47 58 50 0 282 329 342 314 325 357 8 359 7 54 132 231 231 105 112 259 226 113 81 71 53 3 352 351 347 43 100 2 258 265 205 247 271 283 254 190 166 174 136 102 13 281 158 113 156 187 154 158 202 179 155 120 41 10 63 227 230 257 326 14 49 53 94 108 111 126 136 152 164 179 184 179
328 319 314 302 295 285 280 298 302 289 45 59 50 37 45 245 256 307 314 298 344 5 9 8 17 27 357 309 336 20 52 25 3 71 60 67 50 12 349 15 29 37 53 52 253 355 23 284 295 325 322 227 183 172 128 121 148 288 71 143 221 184 132 139 256 234 100 94 46 6 33 316 297 352 354 34 66 34 52 107 109 109 113 129 160 179 177 143
340 331 315 293 284 265 264 285 275 210 81 70 73 297 254 242 254 273 46 100 42 35 49 30 8 19 359 332 343 351 15 22 7 50 44 26 34 7 341 349 27 25 36 73 133 121 97 278 297 349 342 295 217 133 122 134 130 112 152 239 247 115 103 116 131 348 49 89 82 2 15 356 36 52 348 15 69 47 50 83 84 93 105 102 132 157 125 85
339 339 312 280 263 239 258 272 239 147 80 58 18 292 263 258 291 323 57 107 67 57 66 55 0 31 13 352 350 343 358 35 10 46 59 33 37 7 348 347 3 360 0 33 53 17 80 7 297 331 336 306 345 98 109 334 35 137 186 238 198 126 145 339 146 162 64 105 119 12 359 355 66 93 350 6 20 22 44 72 73 73 86 85 88 101 82 72
331 359 319 259 232 236 259 245 201 110 63 41 310 295 276 274 295 326 27 68 69 69 72 17 5 48 24 25 8 334 347 47 33 24 80 63 356 339 358 353 346 345 347 19 53 323 44 77 287 306 326 333 4 74 154 265 314 2 15 354 53 142 164 173 185 165 120 125 137 66 353 289 204 182 90 51 33 8 12 68 77 66 64 67 56 64 76 84
331 33 282 252 245 248 227 195 148 86 82 213 210 235 268 286 302 320 2 80 91 86 109 292 21 49 20 19 32 333 350 25 44 56 72 61 29 348 359 3 352 338 337 23 53 8 26 66 294 305 335 10 18 45 165 187 176 26 0 326 319 344 132 149 239 173 122 135 140 118 195 276 244 188 118 85 70 20 346 60 80 72 65 61 56 62 72 77
36 44 265 286 320 215 175 145 95 108 162 263 242 234 288 329 339 333 350 57 77 115 139 132 85 84 56 13 9 8 15 6 9 45 49 43 70 20 345 357 5 339 339 23 33 12 28 62 112 309 342 6 260 266 252 217 177 127 128 246 205 154 114 103 294 311 82 115 139 137 171 258 322 145 113 99 95 57 351 30 78 78 71 65 60 63 65 65
76 27 266 295 306 228 149 115 288 149 161 260 228 209 352 14 13 351 346 18 53 97 117 107 105 75 71 89 350 22 50 20 4 31 47 52 73 63 331 356 5 354 22 38 323 295 120 90 53 302 286 249 257 274 298 278 226 122 112 268 242 132 113 117 199 269 65 90 96 95 110 271 336 110 116 114 115 105 47 8 67 75 70 70 67 66 67 65
115 270 277 295 293 247 124 48 292 122 222 243 208 101 34 28 24 8 353 359 17 29 48 51 83 71 89 190 21 35 70 55 23 28 22 38 48 0 345 12 11 13 44 36 310 311 1 75 36 320 296 301 302 327 9 6 11 53 29 347 9 4 117 145 166 159 107 116 109 82 84 221 292 87 124 131 128 127 131 123 91 80 66 63 65 68 70 64
252 262 282 314 310 198 132 195 260 234 248 253 73 68 52 36 42 37 359 345 359 11 17 3 54 94 147 45 40 34 66 83 49 28 22 40 13 358 19 30 26 20 28 158 250 327 349 58 65 27 350 351 352 2 9 0 4 20 319 344 16 9 15 88 105 74 83 163 142 113 109 185 159 95 129 146 137 129 135 133 112 97 84 69 62 65 72 65
316 278 277 310 326 118 141 201 180 145 353 39 74 94 91 28 22 55 23 336 358 23 11 336 37 86 65 54 55 31 31 81 87 11 14 9 323 358 13 14 26 23 349 270 241 270 78 101 99 99 93 63 48 30 351 320 322 316 327 3 17 10 9 40 88 72 91 141 121 117 129 146 156 137 139 145 131 119 120 118 107 103 97 87 73 63 63 63
16 11 310 313 342 57 127 252 116 90 30 52 57 27 96 109 329 25 28 2 3 14 7 347 15 80 66 59 77 51 28 43 56 33 9 347 314 336 354 359 21 17 3 3 1 21 105 54 63 122 153 172 176 206 222 247 318 328 356 16 14 2 7 83 101 81 140 119 54 140 148 147 176 182 154 145 134 125 125 119 111 109 101 89 84 75 65 62
67 356 7 339 328 10 359 348 56 68 45 85 70 342 58 82 27 7 11 5 10 19 16 6 14 57 81 69 83 68 21 26 45 42 352 336 326 341 358 13 22 8 1 10 11 38 94 29 20 66 3 253 197 235 269 323 351 345 5 22 14 2 19 67 93 147 147 108 28 214 152 148 175 181 154 149 143 133 135 131 121 114 109 101 93 85 76 69
42 273 326 51 290 298 11 12 56 70 49 62 66 14 55 66 54 25 352 341 1 25 36 27 24 38 65 84 99 68 18 26 29 10 344 350 354 359 359 3 12 7 5 17 13 51 99 30 348 26 8 347 330 330 342 358 2 1 18 33 20 6 24 54 96 165 153 129 161 178 162 154 167 165 148 146 143 140 141 133 123 118 116 112 101 89 80 70
21 325 305 0 346 254 295 354 72 89 65 56 52 41 68 72 53 36 9 358 356 8 41 68 48 41 41 51 84 82 47 64 19 351 355 353 353 28 15 346 346 358 12 27 6 39 102 9 339 24 29 352 343 354 7 9 12 15 23 40 31 11 26 53 61 147 120 120 144 149 141 135 142 142 140 138 134 134 132 123 122 125 122 115 106 97 90 81
4 297 311 352 344 303 318 7 57 91 61 46 64 55 72 80 53 19 27 46 14 351 14 75 78 67 58 49 62 66 41 143 147 23 16 35 14 33 61 305 302 343 7 19 350 3 59 348 334 36 48 345 337 347 356 0 29 38 26 33 41 28 31 57 65 77 77 96 123 123 109 101 114 125 123 119 119 120 122 125 129 132 127 116 107 102 101 98
331 273 299 9 328 329 354 1 30 90 55 24 91 85 67 82 77 44 8 39 108 49 23 71 75 62 57 47 47 36 4 34 111 352 342 84 89 283 212 191 141 31 5 5 351 3 29 348 339 53 65 332 329 343 344 347 41 48 24 9 24 47 44 47 69 110 115 120 121 113 112 124 133 124 111 107 115 119 124 132 130 126 122 110 104 104 108 110
352 316 334 85 235 338 6 346 353 89 102 335 106 90 75 94 90 84 55 327 5 55 50 78 81 63 47 36 22 348 331 332 312 311 320 354 10 356 100 110 100 96 33 6 15 359 23 28 2 52 78 300 325 341 343 3 39 36 355 330 347 85 90 66 54 90 122 133 133 130 143 151 127 118 112 107 110 114 121 128 126 122 112 100 97 99 101 107